Weather History for St. Joseph, MO

Change the Weather History Date:

Wednesday, May 1, 2013

  Actual Average Record
Temperature  
Mean Temperature 55 °F 59 °F  
Max Temperature 70 °F 70 °F 92 °F (1987)
Min Temperature 40 °F 48 °F 31 °F (1963)
Degree Days  
Heating Degree Days 10 7  
Month to date heating degree days 10 7  
Since 1 July heating degree days 5443 5345  
Cooling Degree Days 0 1  
Month to date cooling degree days 0 1  
Year to date cooling degree days 16 22  
Growing Degree Days 4 (Base 50)    
Moisture  
Dew Point 43 °F    
Average Humidity 65    
Maximum Humidity 85    
Minimum Humidity 44    
Precipitation  
Precipitation 0.03 in 0.19 in 1.61 in (1973)
Month to date precipitation 0.03 0.19  
Year to date precipitation 6.54 7.72  
Sea Level Pressure  
Sea Level Pressure 30.07 in    
Wind  
Wind Speed 17 mph (NNE)    
Max Wind Speed 32 mph    
Max Gust Speed 39 mph    
Visibility 10 miles    
Events Rain , Thunderstorm    
T = Trace of Precipitation, MM = Missing Value Source: NWS Daily Summary

Daily Weather History Graph

Daily Weather History Graph

Search for Another Location

Airport:

Trip Planner

Search our weather history database for the weather conditions in past years. The results will help you decide how hot, cold, wet, or windy it might be!

Date:

Astronomy

May. 01, 2013 Rise Set
Actual Time 6:19 AM CDT 8:14 PM CDT
Civil Twilight 5:50 AM CDT 8:43 PM CDT
Nautical Twilight 5:15 AM CDT 9:19 PM CDT
Astronomical Twilight 4:36 AM CDT 9:57 PM CDT
Moon 1:24 AM CDT (5/1) 11:59 AM CDT (5/1)
Length of Visible Light 14h 52m
Length of Day
13h 54m
Waning Gibbous, 59% of the Moon is Illuminated
May 1
Waning Gibbous
May 2
Last Quarter
May 9
New
May 17
First Quarter
May 24
Full

Hourly Weather History & Observations

Time (CDT) Temp. Windchill Dew Point Humidity Pressure Visibility Wind Dir Wind Speed Gust Speed Precip Events Conditions
1:53 AM 62.1 °F - 48.0 °F 60% 29.83 in 10.0 mi Calm Calm - N/A   Clear
2:53 AM 55.9 °F - 46.9 °F 72% 29.85 in 10.0 mi Calm Calm - N/A   Clear
3:53 AM 60.1 °F - 48.9 °F 67% 29.86 in 10.0 mi SE 4.6 mph - N/A   Clear
4:53 AM 59.0 °F - 50.0 °F 72% 29.88 in 10.0 mi SE 4.6 mph - N/A   Mostly Cloudy
5:53 AM 57.0 °F - 50.0 °F 77% 29.91 in 10.0 mi North 4.6 mph - N/A   Scattered Clouds
6:53 AM 57.0 °F - 48.0 °F 72% 29.96 in 10.0 mi North 13.8 mph - N/A   Mostly Cloudy
7:53 AM 60.1 °F - 48.9 °F 67% 29.99 in 10.0 mi NNE 16.1 mph - N/A   Mostly Cloudy
8:53 AM 60.1 °F - 46.9 °F 62% 30.00 in 10.0 mi NNE 13.8 mph - N/A   Mostly Cloudy
9:53 AM 63.0 °F - 46.9 °F 56% 30.02 in 10.0 mi NNE 15.0 mph - N/A   Overcast
11:53 AM 68.0 °F - 46.9 °F 47% 30.04 in 10.0 mi NE 12.7 mph - N/A   Mostly Cloudy
1:53 PM 69.1 °F - 48.0 °F 47% 30.04 in 10.0 mi North 21.9 mph - N/A   Mostly Cloudy
4:53 PM 64.0 °F - 45.0 °F 50% 30.07 in 10.0 mi North 26.5 mph 33.4 mph N/A   Mostly Cloudy
6:53 PM 51.1 °F - 39.0 °F 63% 30.15 in 10.0 mi North 29.9 mph 36.8 mph N/A   Overcast
7:40 PM 46.4 °F 37.4 °F 37.4 °F 71% 30.17 in 10.0 mi North 28.8 mph 39.1 mph N/A   Overcast
7:53 PM 46.0 °F 37.6 °F 36.0 °F 68% 30.18 in 10.0 mi North 24.2 mph 35.7 mph N/A   Overcast
8:53 PM 45.0 °F 35.6 °F 35.1 °F 68% 30.21 in 10.0 mi North 27.6 mph 35.7 mph N/A   Overcast
9:53 PM 42.1 °F 31.5 °F 34.0 °F 73% 30.23 in 10.0 mi North 28.8 mph 36.8 mph N/A   Overcast
10:11 PM 42.8 °F 33.1 °F 33.8 °F 70% 30.27 in 10.0 mi North 25.3 mph 33.4 mph N/A Thunderstorm Overcast
10:53 PM 39.9 °F 28.6 °F 35.1 °F 83% 30.24 in 10.0 mi NNE 28.8 mph 36.8 mph 0.01 in   Overcast
11:37 PM 41.0 °F 30.7 °F 35.6 °F 81% 30.24 in 10.0 mi North 25.3 mph 34.5 mph N/A Thunderstorm Overcast
11:53 PM 41.0 °F 30.5 °F 35.1 °F 79% 30.23 in 8.0 mi NNE 26.5 mph 35.7 mph 0.00 in Rain , Thunderstorm Light Rain